AD2TM Weather Reports


time (UTC)temp
F
wind
direction
speed
knots
gust
knots
rain 1hr
in
rain 24hr
in
rain mn
in
humidity
%
barometer
mb
20260504184834 66 225 2.6 8.7 0.00 0.00 0.00 49 1004.2
20260504183325 67 91 1.7 7.8 0.00 0.00 0.00 48 1004.3
20260504181820 67 261 3.5 7.8 0.00 0.00 0.00 48 1004.5
20260504180331 67 230 5.2 14.8 0.00 0.00 0.00 47 1004.6
20260504174827 67 232 6.1 10.4 0.00 0.00 0.00 47 1004.6
20260504173337 67 281 4.3 13.9 0.00 0.00 0.00 46 1004.6
20260504171832 66 223 3.5 15.6 0.00 0.00 0.00 49 1004.6
20260504170321 65 182 7.8 18.2 0.00 0.00 0.00 49 1004.7
20260504160337 63 164 4.3 12.2 0.00 0.00 0.00 55 1005.3
20260504150328 60 143 3.5 11.3 0.00 0.00 0.00 52 1005.8
20260504140319 57 99 4.3 10.4 0.00 0.00 0.00 54 1006.3
20260504130329 53 153 1.7 6.1 0.00 0.00 0.00 60 1006.8
20260504110327 42 90 1.7 3.5 0.00 0.00 0.00 77 1007.1
20260504100321 35 202 0.0 1.7 0.00 0.00 0.00 87 1006.8
20260504081835 38 98 0.9 1.7 0.00 0.00 0.00 84 1007.0
20260504080330 39 125 0.9 3.5 0.00 0.00 0.00 81 1006.9
20260504070321 39 88 1.7 2.6 0.00 0.00 0.00 83 1006.8
20260504050330 45 135 0.9 1.7 0.00 0.00 0.00 78 1007.1
20260504044820 45 109 0.9 1.7 0.00 0.00 0.00 79 1007.0
20260504043335 46 109 0.0 1.7 0.00 0.00 0.00 79 1007.2
20260504041826 46 120 0.9 1.7 0.00 0.00 0.00 78 1007.2
20260504040321 47 118 0.9 1.7 0.00 0.00 0.00 76 1007.3
20260504034832 48 120 0.9 2.6 0.00 0.00 0.00 73 1007.4
20260504033327 49 105 1.7 3.5 0.00 0.00 0.00 65 1007.5
20260504031839 50 322 0.9 3.5 0.00 0.00 0.00 63 1007.8
20260504030329 49 276 4.3 9.6 0.00 0.00 0.00 64 1007.9
20260504024823 48 304 1.7 2.6 0.00 0.00 0.00 73 1007.9
20260504023335 49 304 1.7 2.6 0.00 0.00 0.00 69 1007.8
20260504021829 50 266 1.7 6.1 0.00 0.00 0.00 62 1007.9
20260504020318 49 257 0.9 4.3 0.00 0.00 0.00 64 1007.9
20260504014837 48 166 0.0 4.3 0.00 0.00 0.00 65 1007.9
20260504013328 49 150 0.9 2.6 0.00 0.00 0.00 66 1007.9
20260504011818 49 240 1.7 6.1 0.00 0.00 0.00 63 1007.8
20260504010333 50 289 0.9 7.0 0.00 0.00 0.00 61 1007.7
20260504004824 50 344 3.5 10.4 0.00 0.00 0.00 60 1007.9
20260504003319 50 286 4.3 9.6 0.00 0.00 0.00 59 1007.7
20260504001830 47 292 0.9 1.7 0.00 0.00 0.00 69 1007.4
20260504000325 48 309 0.9 3.5 0.00 0.00 0.00 69 1007.1
20260503234836 49 276 0.9 3.5 0.00 0.00 0.00 62 1006.8
20260503233327 51 273 0.9 4.3 0.00 0.00 0.00 58 1006.8
20260503231822 51 294 2.6 4.3 0.00 0.00 0.00 53 1006.8
20260503230332 52 281 3.5 10.4 0.00 0.00 0.00 52 1006.7
20260503224828 53 325 4.3 11.3 0.00 0.00 0.00 50 1006.8
20260503223321 53 309 7.8 15.6 0.00 0.00 0.00 52 1006.9
20260503221820 52 290 3.5 17.4 0.00 0.00 0.00 53 1006.9
20260503220330 52 252 3.5 13.0 0.00 0.00 0.00 53 1007.0
20260503214824 52 321 4.3 9.6 0.00 0.00 0.00 54 1007.0
20260503213333 51 299 7.8 16.5 0.00 0.00 0.00 54 1006.9
20260503211827 51 309 3.5 13.9 0.00 0.00 0.00 55 1007.1
20260503210322 51 312 6.1 13.0 0.00 0.00 0.00 54 1006.8
20260503204836 51 240 5.2 17.4 0.00 0.00 0.00 52 1006.8
20260503203331 52 304 2.6 12.2 0.00 0.00 0.00 51 1006.9
20260503201825 52 270 5.2 12.2 0.00 0.00 0.00 50 1006.8
20260503200320 51 263 2.6 9.6 0.00 0.00 0.00 50 1006.9
20260503194831 52 294 7.8 12.2 0.00 0.00 0.00 48 1007.1
20260503193320 51 286 7.0 15.6 0.00 0.00 0.00 45 1007.4
20260503191838 52 315 8.7 17.4 0.00 0.00 0.00 46 1007.4
20260503190329 52 285 6.1 11.3 0.00 0.00 0.00 43 1007.7